Location: *
(50.3440°S, 161.3763°W)
Time: 04:35:39
(UTC+00:00)

Daily predictions for brighter satellites

Satellite Brightness Start Highest point End
(mag) Time Altitude Azimuth Time Altitude Azimuth Time Altitude Azimuth
USA 234 3.5 06:07:17 10° ENE 06:13:53 76° SSE 06:20:31 10° WSW
CZ-2D R/B 3.4 06:10:50 10° SSE 06:14:51 90° W 06:18:47 10° NNW
NOSS 0 Rocket 4.3 06:11:14 10° SSW 06:17:23 56° SE 06:23:30 10° NE
USA 186 3.7 06:15:45 10° SE 06:17:46 15° E 06:19:46 10° NE
CZ-2C R/B 3.3 06:12:26 10° SSE 06:17:50 58° E 06:23:27 10° N
PEGASUS R/B 4.4 06:18:13 10° SSE 06:21:02 50° WSW 06:23:18 10° NW
Cosmos 1869 3.9 06:20:23 10° SSW 06:24:22 59° W 06:28:14 10° N
CZ-2C R/B 4.3 06:23:40 10° N 06:28:20 61° WNW 06:32:59 10° SSW
Cosmos 389 Rocket 4.1 06:29:13 10° SSE 06:32:05 21° ESE 06:34:36 12° ENE
Cosmos 2151 4.1 06:28:44 10° NE 06:32:19 26° E 06:35:57 10° SSE
Cosmos 1814 Rocket 4.0 06:27:18 10° SSW 06:32:35 88° ESE 06:37:51 10° NNE
Okean O Rocket 4.5 06:28:57 10° S 06:32:35 24° WSW 06:36:12 10° WNW
YAOGAN 1 2.6 06:32:05 10° SSE 06:36:31 87° E 06:40:55 10° NNW
OBJECT-B 3.0 06:36:02 10° ESE 06:37:14 12° E 06:37:52 11° E
ARGOS 3.5 06:33:49 10° SSE 06:39:03 46° E 06:44:15 10° N
Cosmos 2058 3.0 06:38:50 10° N 06:43:03 89° ENE 06:47:22 10° S
Cosmos 2297 Rocket 3.3 06:39:57 10° NNE 06:44:15 23° ENE 06:48:34 10° SE
HJ-1C 3.3 06:43:05 10° SSE 06:46:31 79° ENE 06:49:52 10° N
Cosmos 405 3.7 06:46:57 10° SSW 06:50:28 55° W 06:53:57 10° N
Cosmos 968 Rocket 4.3 06:47:43 10° NNE 06:52:03 28° E 06:56:26 10° SE
Cosmos 1892 3.7 06:48:56 10° NNW 06:52:44 51° WSW 06:56:35 10° S
H-2A R/B 2.0 06:49:07 10° SSE 06:54:14 79° ENE 06:59:26 10° NNW
CSL-04 Rocket 3.7 06:50:43 10° SSE 06:56:16 75° ENE 07:01:49 10° N
Cosmos 2221 3.9 06:52:27 10° SSW 06:56:34 41° W 07:00:40 10° NNW
Cosmos 1900 4.3 06:51:57 10° SW 06:56:52 80° SE 07:00:41 17° NE
Ariane Rocket 3.8 06:52:38 10° SSE 06:57:17 32° E 07:01:12 13° NNE
Blok-L 4.2 06:55:08 10° SW 06:57:22 54° SE 07:02:25 15° ENE
Cosmos 1408 3.3 06:57:45 10° NNW 07:01:29 58° WSW 07:05:14 10° S
Lacrosse 5 rocket 2.9 07:00:36 10° WSW 07:04:44 35° S 07:08:39 10° ESE
COSMOS 2428 3.5 06:59:11 10° SW 07:04:44 51° WNW 07:10:16 10° N
Okean-O 3.9 07:01:10 10° S 07:05:29 44° WSW 07:09:45 10° NW
SL-08 RB Rocket 3.8 07:00:53 10° SSE 07:05:29 59° E 07:10:00 10° N
Cosmos 2333 Rocket 3.4 07:00:42 10° SW 07:06:05 40° WNW 07:11:26 10° N
Cosmos 1346 Rocket 3.3 07:04:08 10° NNW 07:08:09 65° WSW 07:12:14 10° S
Meteor 2-3 Rocket 4.5 07:04:24 15° NNE 07:08:39 36° E 07:13:55 10° SSE
Cosmos 1486 Rocket 4.4 07:05:21 10° N 07:10:16 42° ENE 07:15:14 10° SE
ATLAS CENTAUR R/B 4.0 07:08:47 10° W 07:12:51 28° SSW 07:17:02 10° SSE
Cosmos 2219 3.7 07:08:17 10° N 07:13:32 39° ENE 07:18:49 10° SE
Cosmos 1825 2.6 07:11:19 10° NNW 07:15:07 64° WSW 07:18:58 10° S
Cosmos 2237 Rocket 2.2 07:09:58 10° SSW 07:15:46 86° ESE 07:19:55 20° NNE
SJ-6B 3.0 07:13:24 10° SSE 07:17:09 47° E 07:19:30 20° NNE
USA 229 DEB 3.9 07:11:09 10° NW 07:18:50 82° NE 07:26:08 10° SE
USA 229 3.9 07:11:15 10° NW 07:18:55 81° NE 07:26:14 10° SE
Cosmos 1076 Rocket 4.3 07:15:05 10° NNW 07:19:23 55° WSW 07:23:47 10° S
USA 267 3.2 07:14:00 10° ESE 07:20:41 83° NNE 07:27:18 10° WNW
SeaSat 1 4.1 07:17:39 10° ESE 07:20:22 16° E 07:20:22 16° E
USA 281 4.1 07:15:44 10° SSE 07:22:10 53° SW 07:28:32 10° NW
ISS -3.8 07:20:48 10° WSW 07:24:16 83° NNW 07:25:45 32° ENE
CZ-4 R/B 3.8 07:21:45 10° S 07:25:23 27° WSW 07:28:57 10° WNW
Cosmos 1980 3.8 07:20:51 10° SSW 07:26:36 77° WNW 07:30:34 20° NNE
Cosmos 1867 4.0 07:22:39 10° SW 07:27:58 52° SE 07:31:18 22° ENE
Cosmos 1633 3.2 07:27:47 32° NE 07:28:43 37° E 07:32:09 10° SSE
SAR-Lupe-2 3.8 07:27:56 31° NE 07:29:23 55° ESE 07:33:00 10° S
JB-3 4.5 07:27:31 27° NNE 07:29:35 65° ESE 07:33:46 10° S
MOS 1 4.4 07:26:24 10° SSE 07:32:05 55° E 07:36:30 17° N
Okean 3 Rocket 3.6 07:30:30 19° N 07:33:40 66° E 07:38:16 10° SSE
NOSS 3-1 (A) 4.0 07:25:10 10° NW 07:33:53 82° NE 07:41:26 10° SE
CENTAUR R/B 4.1 07:28:45 10° SW 07:34:15 27° SSE 07:39:06 10° ESE
Cosmos 1766 Rocket 3.5 07:36:03 22° N 07:38:53 68° E 07:43:20 10° SSE
SL-16 R/B 2.5 07:36:14 10° SSW 07:41:56 57° SE 07:44:56 27° ENE
MetOp-A 4.1 07:38:37 10° SSE 07:44:05 74° ENE 07:48:32 16° N
Cosmos 2227 Rocket 2.3 07:43:13 15° N 07:47:53 54° ENE 07:53:27 10° SE
USA 186 3.1 07:45:25 10° S 07:48:37 42° WSW 07:51:42 10° NW
Meteor 1-26 Rocket 4.1 07:43:21 10° SSW 07:48:54 86° ESE 07:51:57 28° NNE
Cosmos 2184 Rocket 4.0 07:44:26 19° N 07:49:04 67° E 07:55:27 10° SSE
Cosmos 2219 Rocket 4.2 07:45:31 10° SW 07:49:43 22° W 07:53:55 10° NNW
Cosmos 1606 3.9 07:46:42 10° SSW 07:50:19 39° W 07:52:50 17° NNW
TELKOM 3 4.1 07:48:08 10° W 07:51:38 45° NNW 07:51:41 45° NNW
Cosmos 1151 Rocket 3.1 07:47:13 10° SSW 07:51:40 78° W 07:53:49 30° N
NOSS 3-1 (C) 4.4 07:43:55 10° WNW 07:52:27 67° SW 07:59:48 10° SE
Cosmos 1441 Rocket 3.1 07:51:25 42° NNE 07:52:33 67° E 07:56:24 10° SSE
Cosmos 1812 4.0 07:51:18 10° SSE 07:54:40 26° ESE 07:55:07 26° E
FREGAT/IRIS 3.2 07:52:55 10° S 07:55:30 46° WSW 07:56:10 36° WNW
Cosmos 2263 Rocket 4.3 07:57:04 10° E 07:57:04 10° E 07:57:06 10° E
USA 234 3.8 07:53:29 25° NNE 07:57:10 47° NW 08:03:32 10° WSW
SPOT 3 Rocket 3.7 07:53:20 10° SSE 07:58:27 51° E 08:00:20 34° NNE
Meteor 1-4 Rocket 2.5 08:01:46 10° S 08:05:21 61° ESE 08:05:40 58° ENE
Cosmos 1328 Rocket 3.9 08:01:22 10° SSW 08:05:53 64° W 08:07:53 31° NNW
Cosmos 389 Rocket 3.9 08:03:32 10° SSW 08:06:52 34° W 08:08:27 23° NW
Cosmos 1933 4.3 08:03:05 10° SSW 08:07:05 45° W 08:09:05 25° NNW
Resurs 01 Rocket 1.8 08:02:40 10° SSE 08:07:08 54° E 08:08:03 45° NE
Cosmos 2074 Rocket 4.0 08:04:49 19° N 08:09:33 88° W 08:15:58 10° S
OBJECT-B 1.4 08:06:37 10° S 08:09:55 55° WSW 08:11:03 34° NW
ARIANE 5 R/B 3.4 08:09:19 10° SSE 08:13:09 33° E 08:13:09 33° E
Cosmos 2327 Rocket 4.5 08:10:10 30° N 08:13:21 70° E 08:19:41 10° SSE
NOSS 3-2 (A) 4.3 08:07:55 10° SW 08:14:36 45° SSE 08:18:26 21° E
MTI 3.9 08:16:26 65° SE 08:16:26 65° SE 08:19:23 10° S
Cosmos 1408 Rocket 3.5 08:15:31 40° N 08:17:06 88° W 08:21:34 10° S
Terra 3.8 08:20:51 10° SE 08:23:06 15° E 08:23:06 15° E
Spot 2 Rocket 4.1 08:20:27 10° SSE 08:25:11 37° E 08:25:28 36° ENE
Cosmos 1782 3.3 08:22:03 10° SSW 08:26:08 57° W 08:27:05 44° NW
Lacrosse 4 Rocket 4.5 08:25:37 10° S 08:26:36 11° SSE 08:27:35 10° SSE
Cosmos 2297 Rocket 2.4 08:22:03 10° NW 08:27:44 72° WSW 08:33:28 10° SSE
EO 1 Del DPAF 4.2 08:28:15 34° ESE 08:28:16 34° ESE 08:31:47 10° S
Cosmos 1603 4.5 08:26:48 10° SSW 08:32:22 44° SE 08:34:35 31° E
Cosmos 968 Rocket 4.3 08:28:38 10° NW 08:33:37 49° WSW 08:38:40 10° SSE
Ariane Rocket 4.2 08:31:30 10° S 08:36:20 42° WSW 08:41:09 10° NW
SL-8 Rocket 4.4 08:37:21 39° NE 08:38:49 46° E 08:44:51 10° SSE
Cosmos 1777 Rocket 4.2 08:39:08 49° ENE 08:39:31 50° ENE 08:44:42 10° SSE
SPOT 5 4.1 08:35:29 10° SSE 08:40:08 31° E 08:40:08 31° E
Cosmos 1515 Rocket 4.3 08:35:47 10° SSW 08:40:10 48° W 08:41:22 38° NW
Lacrosse 5 rocket 1.5 08:40:08 10° SW 08:44:29 65° SSE 08:45:00 59° ESE
Meteor 2-6 Rocket 4.3 08:40:58 10° SSW 08:46:45 74° W 08:48:39 44° N
Cosmos 2154 Rocket 4.2 08:46:27 29° NNW 08:49:57 72° WSW 08:56:25 10° S
Cosmos 773 Rocket 4.1 08:45:30 10° SSW 08:50:41 63° WNW 08:51:44 51° NNW
Nadezhda 3 Rocket 4.4 08:44:52 10° SSW 08:51:00 58° W 08:53:37 34° NNW
SPOT 1/Viking Rocket 3.6 08:47:44 10° SSE 08:52:58 60° ENE 08:53:30 57° NE
SJ 16-02 3.2 08:55:49 20° ESE 08:55:49 20° ESE 08:57:57 10° SE
Cosmos 1707 Rocket 3.9 08:50:48 10° S 08:55:09 51° ESE 08:55:09 51° ESE
Cosmos 1339 Rocket 4.5 08:50:05 10° S 08:56:30 73° ESE 08:58:12 50° NNE
Cosmos 2219 4.3 08:52:12 10° WNW 08:57:40 44° SW 09:03:08 10° SSE
Cosmos 405 Rocket 3.6 08:59:16 41° SE 08:59:16 41° SE 09:02:20 10° SSE
MetOp-B 4.1 08:53:01 10° SSE 08:58:31 89° W 08:59:58 51° NNW
SeaSat 1 2.4 08:53:50 10° SSE 08:58:52 89° ENE 09:00:08 52° NNW
Cosmos 2237 Rocket 4.2 08:55:18 10° WSW 08:59:05 18° W 09:01:45 13° NW
ISS -1.1 08:57:54 10° W 08:58:41 14° W 08:58:41 14° W
Cosmos 1437 Rocket 3.5 08:57:01 10° S 09:00:21 44° SE 09:00:21 44° SE
Cosmos 1184 Rocket 4.1 09:01:46 39° SW 09:01:46 39° SW 09:04:36 10° S
Cosmos 2228 Rocket 3.4 08:58:31 10° SSW 09:02:56 55° W 09:03:23 53° WNW
USA 267 3.9 08:57:04 10° ESE 09:03:31 56° SSW 09:09:57 10° W
USA 81 4.3 09:04:04 45° NW 09:05:35 67° W 09:10:58 10° S
Cosmos 2082 3.8 09:03:44 32° NW 09:06:30 75° WSW 09:12:15 10° SSE
IGS 5A 3.7 09:03:25 10° S 09:07:37 65° WSW 09:07:56 62° W
Landsat 7 3.9 09:03:03 10° SSE 09:07:55 78° WSW 09:08:42 62° NW
Meteor 2-12 Rocket 4.4 09:06:43 50° N 09:08:29 87° E 09:14:44 10° S
Cosmos 1862 3.6 09:08:59 63° W 09:09:00 63° WSW 09:13:07 10° S
Cosmos 1867 4.4 09:06:30 10° SW 09:11:27 36° WNW 09:11:58 36° NW
Cosmos 923 Rocket 4.2 09:06:20 10° SSW 09:11:44 61° ESE 09:12:36 54° ENE
Nimbus 7 Rocket 4.4 09:10:51 54° N 09:12:16 76° WNW 09:18:14 10° SSW
Cosmos 1633 Rocket 4.0 09:13:38 37° ESE 09:13:38 37° ESE 09:17:05 10° SSE
Cosmos 1500 Rocket 4.4 09:13:48 40° WNW 09:14:43 46° WSW 09:19:05 10° S
Sich 1 3.1 09:15:03 70° ESE 09:15:03 70° ESE 09:19:11 10° SSE
Cosmos 1943 3.3 09:09:14 10° SSW 09:14:57 70° ESE 09:16:02 56° ENE
NOSS 3-2 (C) 3.9 09:08:52 10° SW 09:15:41 59° SE 09:18:05 36° E
Cosmos 2366 rocket 4.0 09:16:07 56° NNE 09:17:18 69° E 09:23:30 10° SSE
ERS-1 Rocket 2.9 09:19:53 10° SSE 09:25:00 71° ENE 09:25:08 70° ENE
SL-16 R/B 3.4 09:20:51 10° SW 09:25:44 29° WNW 09:26:49 27° NW
CENTAUR R/B 2.5 09:20:00 10° SW 09:26:04 61° SE 09:27:34 45° E
Cosmos 1812 4.2 09:26:58 10° SSW 09:30:12 30° W 09:30:12 30° W
Timation 1 Rocket 4.3 09:29:35 51° NW 09:31:13 87° WSW 09:37:18 10° SSE
Thor Agena Rocket 4.2 09:30:50 39° WNW 09:31:29 41° W 09:36:22 10° SSW
Cosmos 2227 Rocket 3.7 09:27:01 10° WNW 09:32:13 34° SW 09:37:27 10° SSE
Cosmos 1862 Rocket 3.8 09:31:11 10° S 09:35:13 63° SE 09:35:13 63° SE
Meteor 1-27 Rocket 4.1 09:30:26 10° SSW 09:36:22 60° W 09:37:29 51° NW
Cosmos 1242 Rocket 4.5 09:33:20 10° S 09:35:49 24° SE 09:35:49 24° SE
PSLV R/B 4.2 09:38:07 51° ESE 09:38:13 51° ESE 09:42:55 10° S
Cosmos 2263 Rocket 2.2 09:38:43 63° ENE 09:38:43 63° ENE 09:44:19 10° SE
ATLAS 2AS CENTAUR R/B 4.2 09:40:59 17° E 09:40:59 17° E 09:43:38 10° ESE
Resurs 01 Rocket 3.8 09:39:47 10° S 09:43:18 22° WSW 09:45:38 15° W
Cosmos 1727 Rocket 3.9 09:37:14 10° S 09:43:43 89° W 09:44:56 62° N
Okean 1-7 4.3 09:44:30 10° S 09:48:08 32° ESE 09:48:08 32° ESE
CARTOSAT-1 4.0 09:44:30 10° S 09:48:47 58° WSW 09:48:47 58° WSW
ARIANE 5 R/B 4.0 09:45:49 10° S 09:49:45 32° WSW 09:50:43 29° W
Meteor 1-25 Rocket 4.2 09:50:28 64° ENE 09:50:48 66° E 09:56:35 10° SSE
Cosmos 1680 Rocket 3.4 09:47:10 10° SSW 09:52:31 86° WNW 09:52:39 84° NNW
Cosmos 1666 Rocket 3.8 09:53:51 67° SW 09:53:51 67° SW 09:58:03 10° S
CZ-4 R/B 4.1 09:56:12 62° E 09:56:25 62° ESE 10:01:27 10° S
USA 238 DEB 3.6 09:53:48 10° SW 10:00:46 69° NW 10:01:45 61° N
USA 238 3.6 09:53:54 10° SW 10:00:52 69° NW 10:01:52 61° N
Cosmos 2112 Rocket 3.9 09:56:06 10° SSW 10:01:27 84° WNW 10:01:30 84° NW
Gblst 52 Del rocket 4.5 09:54:40 10° WSW 10:01:56 71° NNW 10:02:46 64° NNE
Terra 1.8 09:57:11 10° SSE 10:01:59 80° WSW 10:01:59 80° WSW
Gbstr 26 Del rocket 4.0 10:03:22 51° NW 10:05:09 69° NNE 10:11:29 10° ESE
NOSS 3-2 (A) 3.5 09:59:15 10° SW 10:05:41 56° NW 10:05:48 56° NW
Cosmos 1000 Rocket 4.4 09:59:45 10° S 10:06:05 80° E 10:07:01 65° NNE
Lacrosse 4 Rocket 3.1 10:02:50 10° SSW 10:06:47 30° SE 10:07:49 26° ESE
Cosmos 2218 Rocket 4.5 10:08:52 41° WNW 10:10:33 52° WSW 10:16:41 10° S
GEOS 3 Rocket 3.5 10:05:30 10° SE 10:10:36 81° SW 10:11:04 73° WNW
ATLAS 3B R/B 3.5 10:04:01 10° SW 10:11:09 50° SE 10:16:50 15° ENE
Cosmos 1937 Rocket 4.1 10:12:24 46° E 10:12:24 46° E 10:17:07 10° SSE
Cosmos 2239 Rocket 4.5 10:11:22 60° NE 10:12:09 66° E 10:18:23 10° SSE
Cosmos 1603 4.4 10:11:06 10° SW 10:16:28 41° WNW 10:16:28 41° WNW
SPOT 5 3.7 10:13:19 10° S 10:18:23 48° WSW 10:19:23 43° W
ADEOS II 4.4 10:17:37 10° E 10:20:59 18° SE 10:24:26 10° SSE
Lacrosse 5 rocket 3.7 10:19:43 10° WSW 10:20:37 15° WSW 10:20:37 15° WSW
Cosmos 2227 4.5 10:23:24 52° WNW 10:24:34 65° WSW 10:30:23 10° SSE
Cosmos 2242 Rocket 4.0 10:25:05 10° SSW 10:28:54 62° SSW 10:28:54 62° SSW
Cosmos 1821 Rocket 3.9 10:28:52 65° NNW 10:29:52 83° W 10:36:21 10° S
Meteor 1-19 Rocket 4.1 10:25:11 10° SSW 10:30:44 70° W 10:30:58 69° WNW
SJ 16-02 2.1 10:32:47 46° WSW 10:32:47 46° WSW 10:37:03 10° SSE
ATLAS CENTAUR R/B 4.5 10:30:40 10° SSW 10:34:04 18° SSE 10:37:27 10° ESE
Resurs 1-4 Rocket 2.9 10:33:49 37° E 10:35:00 43° ESE 10:40:03 10° S
Cosmos 1703 Rocket 4.0 10:33:27 10° SSW 10:37:10 60° SSW 10:37:10 60° SSW
Spot 4 4.0 10:38:50 10° SSE 10:43:33 66° E 10:43:33 66° E
Cosmos 1898 Rocket 3.5 10:44:08 76° W 10:44:20 77° WSW 10:49:40 10° SSE
USA 267 4.0 10:39:37 10° E 10:46:00 52° S 10:52:22 10° WSW
Meteor 1-14 Rocket 4.2 10:45:20 70° NNW 10:46:05 84° WSW 10:52:13 10° SSE
Cosmos 1271 Rocket 3.7 10:43:22 10° S 10:46:34 46° SSE 10:46:34 46° SSE
Meteor 2-4 Rocket 3.5 10:42:43 10° SSW 10:48:19 80° W 10:48:30 79° NW
Helios 1B rocket 3.1 10:49:47 51° SW 10:49:47 51° SW 10:53:01 10° SSW
CZ-2D R/B 2.6 10:50:36 48° ENE 10:51:43 57° ESE 10:57:10 10° S
ALOS 2 3.4 10:48:38 10° SSE 10:52:25 44° ESE 10:52:25 44° ESE
NPP 4.3 10:52:08 42° ENE 10:53:25 51° ESE 10:58:42 10° S
Meteor 1-11 Rocket 4.2 10:56:10 47° ENE 10:56:58 50° E 11:02:43 10° SSE
Cosmos 2278 Rocket 4.3 10:59:27 14° ENE 11:00:27 14° E 11:03:24 10° ESE
Cosmos 1536 4.1 11:01:30 35° ESE 11:01:30 35° ESE 11:04:36 10° SSE
Cosmos 1238 Rocket 3.6 11:02:42 49° SSW 11:02:42 49° SSW 11:06:25 10° S
NOSS 3-2 (C) 4.2 11:00:24 10° SW 11:05:30 36° W 11:05:30 36° W
NOSS 3-4 (A) 4.0 11:07:30 50° NNW 11:09:54 77° NE 11:17:40 10° SE
NOSS 3-4 (C) 4.0 11:07:36 50° NNW 11:09:59 77° NE 11:17:45 10° SE
Cosmos 2084 3.9 11:06:42 10° SW 11:10:52 59° SSE 11:10:52 59° SSE
Cosmos 1066 Rocket 4.4 11:05:40 10° S 11:11:16 63° ESE 11:12:18 52° ENE
Cosmos 1844 Rocket 2.6 11:11:39 71° NNE 11:12:03 74° ENE 11:17:43 10° SSE
Cosmos 1605 Rocket 3.8 11:11:26 64° N 11:12:27 82° E 11:18:41 10° S
Cosmos 1733 Rocket 4.0 11:13:57 39° E 11:13:57 39° E 11:18:08 10° SSE
CENTAUR R/B 3.5 11:11:14 10° WSW 11:14:43 26° W 11:14:43 26° W
RESURS DK-1 4.0 11:17:17 25° E 11:17:17 25° E 11:19:57 10° SE
Cosmos 1125 Rocket 4.4 11:17:02 35° ENE 11:17:22 36° ENE 11:22:12 10° SE
Cosmos 1934 Rocket 4.2 11:18:14 52° NW 11:19:31 63° WSW 11:25:53 10° S
Cosmos 2150 Rocket 4.3 11:19:46 52° ENE 11:19:57 52° ENE 11:25:04 10° SSE
CZ-4C R/B 3.4 11:19:41 39° NNE 11:21:16 43° ENE 11:27:51 10° SE
Cosmos 1844 3.7 11:21:52 66° NNE 11:22:31 73° ENE 11:28:23 10° SSE
Cosmos 372 Rocket 3.8 11:22:15 80° N 11:22:32 87° ENE 11:27:52 10° SSE
Okean 3 4.0 11:18:12 10° SSW 11:21:53 56° SW 11:21:53 56° SW
Cosmos 2263 Rocket 3.7 11:20:22 21° W 11:23:04 30° SW 11:28:03 10° SSE
Cosmos 1461 4.0 11:22:54 10° SW 11:25:13 35° SW 11:25:13 35° SW
ASTEX 1 4.2 11:26:28 37° ENE 11:27:39 44° ESE 11:32:23 10° S
Helios 1A 4.4 11:24:50 10° SSE 11:28:37 30° E 11:28:38 30° E
Cosmos 1048 Rocket 3.8 11:23:36 10° SSW 11:28:49 85° WNW 11:29:06 80° N
ATLAS 2AS CENTAUR R/B 2.3 11:28:23 62° NNW 11:29:30 80° NE 11:35:53 10° SE
IRS-1D 4.0 11:30:52 42° ENE 11:32:16 56° ESE 11:37:18 10° S
Cosmos 494 Rocket 4.1 11:27:49 10° SSW 11:33:03 73° ESE 11:34:05 56° NE
USA 32 4.4 11:34:27 50° NE 11:35:23 58° E 11:40:36 10° SSE
Terra 4.1 11:36:28 10° SSW 11:39:02 14° SW 11:40:53 12° WSW
Cosmos 1666 3.6 11:41:33 45° SW 11:41:33 45° SW 11:44:42 10° S
Lacrosse 4 Rocket 2.7 11:41:24 10° SW 11:44:07 32° WSW 11:44:07 32° WSW
AQUA 3.7 11:47:14 77° NNW 11:47:29 80° WNW 11:52:22 10° SSW
Cosmos 1833 Rocket 3.0 11:45:41 10° SSW 11:51:22 64° ESE 11:55:03 22° NE
Gbstr 26 Del rocket 4.0 11:45:41 11° W 11:52:34 79° S 11:58:21 10° E
USA 215 4.0 11:47:46 10° ESE 11:53:46 36° NE 11:55:08 33° NNE
ARIANE 5 R/B 3.7 11:51:02 18° NE 11:54:30 42° ESE 11:59:29 10° S
Cosmos 1378 3.9 11:51:50 10° SSW 11:54:44 48° SW 11:54:44 48° SW
